EST,Max TemperatureF,Mean TemperatureF,Min TemperatureF,Max Dew PointF,MeanDew PointF,Min DewpointF,Max Humidity, Mean Humidity, Min Humidity, Max Sea Level PressureIn, Mean Sea Level PressureIn, Min Sea Level PressureIn, Max VisibilityMiles, Mean VisibilityMiles, Min VisibilityMiles, Max Wind SpeedMPH, Mean Wind SpeedMPH, Max Gust SpeedMPH,PrecipitationIn, CloudCover, Events, WindDirDegrees
2012-11-1,48,44,39,38,33,28,93,70,50,29.78,29.70,29.65,10,10,8,14,10,23,0.00,8,,301
2012-11-2,42,39,36,32,28,25,86,65,53,30.08,29.92,29.79,10,10,10,14,10,23,0.00,8,Rain,330
2012-11-3,46,39,33,30,28,25,85,67,53,30.21,30.17,30.09,10,10,10,10,7,16,0.00,4,,341
2012-11-4,39,34,30,27,25,24,79,67,57,30.22,30.20,30.18,10,10,10,7,5,,0.00,5,,343
2012-11-5,41,37,33,30,26,23,75,65,53,30.24,30.21,30.19,10,10,10,9,4,,0.00,8,,62
2012-11-6,39,34,28,33,28,24,82,72,62,30.19,30.09,30.02,10,10,10,13,5,,0.00,7,,103
2012-11-7,46,39,32,32,28,25,82,68,42,30.17,30.07,29.99,10,10,9,12,7,,0.00,2,,42
2012-11-8,46,36,27,32,29,24,89,74,55,30.25,30.19,30.16,10,10,8,7,2,,0.00,1,,96
2012-11-9,51,42,32,44,37,30,97,80,61,30.22,30.17,30.13,8,6,4,10,4,,0.01,5,Rain,200
2012-11-10,59,52,45,47,45,44,97,79,60,30.17,30.12,30.06,10,8,4,10,5,,0.00,5,Rain,156
2012-11-11,66,58,51,47,42,36,74,54,39,30.16,30.08,29.99,10,10,10,20,12,32,0.00,0,,195
2012-11-12,61,48,35,54,40,20,96,79,46,30.28,30.02,29.92,10,9,4,22,14,33,0.43,7,Rain,239
2012-11-13,35,32,28,24,19,17,69,56,50,30.58,30.46,30.28,10,10,10,13,8,18,0.00,7,,279
2012-11-14,39,31,23,28,24,20,88,70,57,30.62,30.55,30.44,10,10,10,7,1,,0.00,3,,118
2012-11-15,45,38,30,31,29,25,92,74,56,30.45,30.40,30.36,10,10,8,6,2,,0.00,1,,40
2012-11-16,52,40,28,32,30,26,92,74,45,30.53,30.47,30.39,10,8,6,5,0,,0.00,0,,215
2012-11-17,52,40,28,32,31,28,100,83,47,30.64,30.58,30.53,10,4,0,7,1,,0.00,0,Fog,103
2012-11-18,52,42,32,32,30,25,100,67,40,30.57,30.52,30.45,10,4,0,9,2,,0.00,2,Fog,83
2012-11-19,53,42,32,32,32,30,100,75,41,30.43,30.35,30.21,10,5,0,5,1,,0.00,2,Fog,144
2012-11-20,54,46,39,37,31,30,93,58,41,30.20,30.15,30.09,10,7,3,4,1,,0.00,6,,124
2012-11-21,57,45,33,41,34,29,100,74,37,30.26,30.21,30.17,10,5,0,8,1,,0.00,1,Fog,189
2012-11-22,60,48,37,39,31,28,97,53,33,30.18,30.06,29.84,10,6,1,20,7,24,0.05,1,Rain,205
2012-11-23,53,43,33,49,33,20,94,70,38,30.01,29.82,29.70,10,9,4,22,15,34,0.13,7,Rain-Snow,259
2012-11-24,34,32,30,20,18,16,61,55,48,30.11,30.07,30.01,10,10,10,18,11,24,0.00,8,,296
2012-11-25,37,32,28,26,24,18,86,73,59,30.05,29.93,29.83,10,8,2,13,9,18,0.00,8,Snow,246
2012-11-26,36,33,30,24,20,15,75,59,50,30.30,30.18,30.03,10,10,10,8,5,,0.00,7,,296
2012-11-27,36,30,25,20,17,14,78,61,43,30.38,30.32,30.27,10,10,10,8,5,,0.00,1,,282
2012-11-28,39,34,28,23,20,17,69,59,45,30.33,30.28,30.22,10,10,10,14,8,24,0.00,2,,255
2012-11-29,46,37,28,30,26,21,85,63,46,30.31,30.27,30.21,10,10,9,15,7,18,0.00,1,,233
2012-11-30,44,39,34,39,34,30,89,84,79,30.29,30.23,30.17,10,9,5,15,7,24,0.00,7,,87